Location: Rodson Ranch
(38.7188°N, 119.3202°W)
Time: 15:44:01
(UTC+00:00)

Cosmos 1428 Rocket - Pass Details

Date: 29 October 2020
Orbit: 947 x 989 km, 82.9° (Epoch: 23 November)

Event Time Altitude Azimuth Distance (km) Brightness Sun altitude
Rises 12:45:03 0° 184° (S) 3,665 7.5 -19.4°
Reaches altitude 10° 12:47:33 10° 185° (S) 2,715 6.8 -18.9°
Maximum altitude 12:53:47 89° 99° (E) 974 4.5 -17.7°
Drops below altitude 10° 13:00:00 10° 7° (N) 2,703 6.9 -16.4°
Sets 13:02:29 0° 8° (N) 3,648 7.5 -16.0°
